Hourly Weather Roundup
Issued by NWS

Home | Current Version | Previous Version | Text Only | Print | Product List | Glossary On
Versions: 1 2 3 4 5 6 7 8 9 10 11 12 13 14 15 16 17 18 19 20 21 22 23 24 25 26 27 28 29 30 31 32 33 34 35 36 37 38 39 40 41 42 43 44 45 46 47 48 49 50
000
NZUS43 KILX 230010
HWRCRS

NWR Hourly Weather Roundup
National Weather Service Lincoln IL
700 PM CDT SUN APR 22 2018


CITY           SKY/WX    TMP DP  RH WIND       PRES   REMARKS
Champaign      FAIR      64  30  27 NE17G23   30.14R
Lawrenceville  LGT RAIN  62  47  57 NE13      30.08F
Peoria         FAIR      64  28  25 E13G22    30.15S
Springfield    FAIR      66  32  28 NE15      30.10S
$$


CITY           SKY/WX    TMP DP  RH WIND       PRES   REMARKS
Bloomington    FAIR      61  29  29 E16       30.16S
Danville       FAIR      62  32  33 E13       30.14S
Decatur        FAIR      64  31  28 E16       30.10S
Effingham      LGT RAIN  64  40  40 NE13G18   30.09S
Flora          CLOUDY    65  47  52 E10       30.07R
Galesburg      CLOUDY    65  30  26 NE9       30.17S
Jacksonville   CLOUDY    65  31  28 NE15G22   30.09F
Lacon          FAIR      63  28  26 NE9G18    30.17S
La Salle       FAIR      63  29  28 E16       30.20S
Lincoln        MOCLDY    64  31  28 E14       30.12S
Litchfield     CLOUDY    62  42  47 NE9       30.06S

CITY           SKY/WX    TMP DP  RH WIND       PRES   REMARKS
Macomb         CLOUDY    61  28  28 NE14      30.16S
Mattoon        FAIR      64  32  30 E14G22    30.10R
Moline         CLOUDY    64  28  25 E17       30.18R
Olney          CLOUDY    64  39  40 E14G20    30.07S
Paris          FAIR      63  32  31 E9        30.13S
Pontiac        FAIR      64  30  27 E14       30.18S
Quincy         CLOUDY    64  27  24 NE13      30.10S
Rantoul        FAIR      64  32  29 E16       30.15S
Robinson       CLOUDY    62  41  45 E7        30.11S
Taylorville    FAIR      65  32  29 E12G21    30.08S
Terre Haute    FAIR      62  34  35 E9        30.13R
$$


CITY           SKY/WX    TMP DP  RH WIND       PRES   REMARKS
Burlington     CLOUDY    62  21  20 NE13      30.14F
Chicago        MOCLDY    55  25  31 NE12      30.24F
Des Moines     PTSUNNY   66  20  17 E10       30.17R
Evansville     LGT RAIN  60  55  83 E7        30.05F
Indianapolis   CLOUDY    63  24  22 E12       30.15F
Kansas City    CLOUDY    65  40  39 NE15      30.06S
Milwaukee      MOCLDY    49  27  42 NE9       30.29S
St Louis       LGT RAIN  58  46  64 NE8       30.05S
$$





USA.gov is the U.S. government's official web portal to all federal, state and local government web resources and services.